GW3912 Weather Reports


time (UTC)temp
F
wind
direction
speed
knots
gust
knots
rain 1hr
in
rain 24hr
in
rain mn
in
humidity
%
barometer
mb
20260503230509 65 202 0.0 1.7 0.00 0.00 0.00 60 1017.5
20260503230024 65 202 0.0 1.7 0.00 0.00 0.00 60 1017.6
20260503225513 65 159 0.0 0.9 0.00 0.00 0.00 60 1017.7
20260503225008 65 161 0.0 2.6 0.00 0.00 0.00 59 1017.6
20260503224526 65 123 0.0 2.6 0.00 0.00 0.00 59 1017.6
20260503224007 66 214 0.0 1.7 0.00 0.00 0.00 59 1017.6
20260503223509 66 228 0.0 1.7 0.00 0.00 0.00 58 1017.6
20260503223013 66 240 0.0 0.9 0.00 0.00 0.00 58 1017.6
20260503222504 66 250 0.0 1.7 0.00 0.00 0.00 58 1017.6
20260503222008 66 194 0.0 1.7 0.00 0.00 0.00 57 1017.6
20260503221529 67 131 0.0 2.6 0.00 0.00 0.00 58 1017.5
20260503221009 67 194 0.0 2.6 0.00 0.00 0.00 58 1017.4
20260503220509 67 129 0.0 3.5 0.00 0.00 0.00 57 1017.4
20260503220021 67 265 0.9 3.5 0.00 0.00 0.00 56 1017.3
20260503215509 67 182 0.0 3.5 0.00 0.00 0.00 57 1017.4
20260503215016 67 215 0.0 2.6 0.00 0.00 0.00 59 1017.4
20260503214524 67 240 0.0 1.7 0.00 0.00 0.00 57 1017.4
20260503214010 67 206 0.0 3.5 0.00 0.00 0.00 57 1017.3
20260503213512 67 166 0.0 3.5 0.00 0.00 0.00 57 1017.4
20260503213034 68 191 0.0 1.7 0.00 0.00 0.00 57 1017.4
20260503212505 68 95 0.0 1.7 0.00 0.00 0.00 56 1017.4
20260503212004 68 220 0.0 1.7 0.00 0.00 0.00 56 1017.4
20260503211516 68 210 0.0 2.6 0.00 0.00 0.00 57 1017.5
20260503211003 68 221 0.0 2.6 0.00 0.00 0.00 57 1017.5
20260503210503 68 110 0.0 2.6 0.00 0.00 0.00 57 1017.5
20260503210003 68 171 0.0 2.6 0.00 0.00 0.00 57 1017.6
20260503205503 68 234 0.0 2.6 0.00 0.00 0.00 57 1017.7
20260503205007 68 169 0.0 2.6 0.00 0.00 0.00 56 1017.7
20260503204504 68 166 0.0 1.7 0.00 0.00 0.00 57 1017.8
20260503204005 67 127 0.0 1.7 0.00 0.00 0.00 57 1017.9
20260503203504 67 51 0.0 3.5 0.00 0.00 0.00 56 1017.9
20260503203007 67 178 0.0 3.5 0.00 0.00 0.00 56 1017.8
20260503202506 67 192 0.0 1.7 0.00 0.00 0.00 57 1017.8
20260503202004 67 242 0.0 1.7 0.00 0.00 0.00 57 1017.8
20260503201513 67 116 0.0 2.6 0.00 0.00 0.00 57 1017.9
20260503201005 67 67 0.0 4.3 0.00 0.00 0.00 57 1018.0
20260503200509 67 240 0.9 5.2 0.00 0.01 0.00 56 1018.1
20260503200020 68 148 0.9 6.1 0.00 0.01 0.00 56 1018.1
20260503195509 68 235 0.0 6.1 0.00 0.01 0.00 56 1018.0
20260503195003 68 89 0.0 2.6 0.00 0.01 0.00 56 1018.1
20260503194521 68 101 0.9 2.6 0.00 0.01 0.00 57 1018.2
20260503194002 68 77 0.9 2.6 0.00 0.01 0.00 54 1018.3
20260503193504 68 88 0.9 2.6 0.00 0.01 0.00 52 1018.3
20260503193005 69 200 0.0 2.6 0.00 0.02 0.00 54 1018.4
20260503192504 69 199 0.0 2.6 0.00 0.04 0.00 56 1018.5
20260503192009 68 82 0.0 2.6 0.00 0.05 0.00 58 1018.6
20260503191509 67 114 0.0 1.7 0.00 0.05 0.00 57 1018.7
20260503191004 67 105 0.0 1.7 0.00 0.05 0.00 60 1018.9
20260503190508 67 59 0.0 1.7 0.00 0.06 0.00 57 1018.9
20260503190036 67 78 0.0 2.6 0.00 0.06 0.00 57 1019.1
20260503185505 67 76 0.0 4.3 0.00 0.07 0.00 57 1019.1
20260503185004 67 53 0.9 4.3 0.00 0.07 0.00 56 1019.0
20260503184521 66 154 0.0 1.7 0.00 0.07 0.00 59 1019.2
20260503184008 67 130 0.0 3.5 0.00 0.07 0.00 58 1019.2
20260503183503 67 89 0.0 3.5 0.00 0.07 0.00 59 1019.2
20260503183017 67 80 0.9 3.5 0.00 0.08 0.00 54 1019.3
20260503182505 68 88 0.0 1.7 0.00 0.09 0.00 56 1019.4
20260503182005 69 82 0.0 1.7 0.00 0.10 0.00 55 1019.5
20260503181508 69 93 0.0 1.7 0.00 0.11 0.00 57 1019.5
20260503181005 70 182 0.0 1.7 0.00 0.11 0.00 56 1019.5
20260503180506 70 81 0.0 1.7 0.00 0.11 0.00 50 1019.4
20260503180022 71 223 0.0 1.7 0.00 0.11 0.00 48 1019.4
20260503175506 70 69 0.0 0.9 0.00 0.11 0.00 52 1019.4
20260503175005 70 185 0.0 2.6 0.00 0.11 0.00 54 1019.4
20260503174517 70 65 0.0 3.5 0.00 0.11 0.00 52 1019.4
20260503174006 69 105 0.9 3.5 0.00 0.12 0.00 45 1019.3
20260503173509 69 257 0.9 4.3 0.00 0.12 0.00 46 1019.3
20260503173021 68 349 0.9 4.3 0.00 0.12 0.00 48 1019.4
20260503172510 68 352 0.9 4.3 0.00 0.13 0.00 50 1019.5
20260503172003 68 360 0.0 3.5 0.00 0.13 0.00 48 1019.5
20260503171504 68 88 0.0 3.5 0.00 0.14 0.00 49 1019.5
20260503171004 69 56 0.0 3.5 0.00 0.17 0.00 47 1019.5
20260503170504 69 40 0.0 1.7 0.00 0.21 0.00 46 1019.6
20260503151012 65 162 0.9 3.5 0.00 0.36 0.00 51 1020.4
20260503150508 65 261 0.9 5.2 0.00 0.37 0.00 55 1020.3
20260503131007 58 296 0.0 3.5 0.00 0.72 0.00 83 1019.8
20260503130512 57 293 0.9 3.5 0.00 0.75 0.00 83 1019.8
20260503110505 47 304 0.0 0.0 0.00 0.89 0.00 92 1018.7
20260503090510 49 304 0.0 0.0 0.00 1.11 0.00 91 1016.9
20260503081505 49 304 0.0 0.0 0.00 1.19 0.00 91 1016.6
20260503081006 49 304 0.0 0.0 0.00 1.20 0.00 91 1016.6
20260503080505 49 304 0.0 0.0 0.00 1.21 0.00 91 1016.7
20260503072507 50 304 0.0 0.0 0.00 1.25 0.00 91 1016.4
20260503072013 51 304 0.0 0.0 0.00 1.25 0.00 91 1016.4
20260503071523 51 304 0.0 0.0 0.00 1.25 0.00 91 1016.3
20260503071007 51 304 0.0 0.0 0.00 1.26 0.00 91 1016.3
20260503070508 51 304 0.0 0.0 0.00 1.26 0.00 91 1016.3
20260503055009 52 280 0.0 0.9 0.00 1.28 0.00 91 1016.2
20260503054537 52 280 0.0 0.9 0.00 1.29 0.00 90 1016.2
20260503054006 52 280 0.0 0.9 0.00 1.29 0.00 90 1016.2
20260503053506 53 280 0.0 0.0 0.00 1.30 0.00 90 1016.1
20260503053015 53 280 0.0 0.0 0.00 1.30 0.00 90 1016.1
20260503052505 53 280 0.0 0.9 0.00 1.30 0.00 90 1016.0
20260503052011 53 280 0.0 0.9 0.00 1.30 0.00 90 1016.0
20260503051523 53 280 0.0 0.9 0.00 1.30 0.00 90 1016.1
20260503051009 53 280 0.0 0.9 0.00 1.30 0.00 90 1016.1
20260503050505 53 280 0.0 0.9 0.00 1.30 0.00 90 1016.0
20260503050023 53 280 0.0 0.9 0.00 1.30 0.00 90 1015.9
20260503045511 53 284 0.0 0.9 0.00 1.30 0.00 90 1015.9
20260503045007 53 284 0.0 0.9 0.00 1.30 0.00 90 1015.8
20260503044526 54 284 0.0 0.9 0.00 1.30 0.00 90 1015.7
20260503044008 54 284 0.0 0.0 0.00 1.30 0.00 90 1015.6
20260503043507 54 284 0.0 1.7 0.00 1.30 0.00 90 1015.7
20260503043028 54 284 0.0 1.7 0.00 1.30 0.00 90 1015.7
20260503042507 54 300 0.0 1.7 0.00 1.30 0.00 90 1015.6
20260503042006 54 259 0.0 1.7 0.00 1.30 0.00 90 1015.5
20260503041519 54 259 0.0 1.7 0.00 1.30 0.00 90 1015.5
20260503041006 54 268 0.0 1.7 0.00 1.30 0.00 90 1015.4
20260503040512 54 274 0.0 0.9 0.00 1.30 0.00 90 1015.3
20260503040027 54 275 0.0 0.0 0.00 1.30 0.00 90 1015.4
20260503035506 54 275 0.0 0.0 0.00 1.30 1.30 89 1015.2
20260503035008 54 275 0.0 0.9 0.00 1.30 1.30 89 1015.0
20260503034527 54 275 0.0 0.9 0.00 1.30 1.30 89 1015.0
20260503034006 54 275 0.0 0.9 0.00 1.30 1.30 89 1015.0
20260503033508 54 275 0.0 0.9 0.00 1.30 1.30 89 1014.9
20260503033040 54 275 0.0 0.9 0.00 1.30 1.30 89 1014.9
20260503032510 54 275 0.0 2.6 0.00 1.30 1.30 89 1014.9
20260503032009 55 275 0.0 2.6 0.00 1.30 1.30 88 1014.9
20260503031528 55 183 0.0 1.7 0.00 1.30 1.30 88 1014.8
20260503031010 55 162 0.0 1.7 0.00 1.30 1.30 88 1014.6
20260503030507 55 278 0.0 1.7 0.00 1.30 1.30 88 1014.7
20260503030018 55 278 0.0 1.7 0.00 1.30 1.30 89 1014.6
20260503025507 55 275 0.0 1.7 0.00 1.31 1.30 89 1014.6
20260503025009 55 275 0.0 1.7 0.00 1.31 1.30 89 1014.5
20260503024504 55 170 0.0 0.9 0.00 1.31 1.30 89 1014.5
20260503024004 55 294 0.0 1.7 0.00 1.31 1.30 89 1014.4
20260503023503 55 294 0.0 3.5 0.00 1.31 1.30 88 1014.4
20260503023008 55 284 0.9 3.5 0.00 1.31 1.30 89 1014.2
20260503022503 55 246 0.0 1.7 0.00 1.31 1.30 89 1014.0
20260503022004 55 286 0.0 1.7 0.00 1.31 1.30 89 1013.9
20260503021510 55 157 0.0 1.7 0.00 1.31 1.30 89 1013.7
20260503021005 55 157 0.0 1.7 0.00 1.31 1.30 88 1013.7
20260503020505 55 283 0.0 1.7 0.00 1.32 1.30 88 1013.7
20260503020014 55 139 0.0 1.7 0.00 1.32 1.30 88 1013.8
20260503015508 55 278 0.0 1.7 0.00 1.32 1.30 88 1013.7
20260503015005 55 271 0.0 1.7 0.00 1.32 1.30 88 1013.6
20260503014514 55 292 0.0 1.7 0.00 1.32 1.30 88 1013.4
20260503014007 55 267 0.9 1.7 0.00 1.32 1.30 89 1013.3
20260503013504 55 290 0.0 1.7 0.00 1.32 1.30 89 1013.2
20260503013006 55 202 0.0 1.7 0.00 1.32 1.30 88 1013.1
20260503012504 55 286 0.0 1.7 0.00 1.32 1.30 88 1013.1
20260503012004 55 226 0.0 1.7 0.00 1.32 1.30 89 1013.2
20260503011510 55 275 0.0 1.7 0.00 1.32 1.30 88 1013.4
20260503011004 55 298 0.0 1.7 0.00 1.32 1.30 89 1013.4
20260503010508 55 212 0.0 1.7 0.00 1.32 1.30 89 1013.4
20260503010016 55 283 0.0 2.6 0.00 1.32 1.30 88 1013.4
20260503005505 55 5 0.0 2.6 0.00 1.32 1.30 88 1013.4
20260503005007 55 286 0.9 2.6 0.00 1.32 1.30 88 1013.4
20260503004524 55 317 0.9 2.6 0.00 1.32 1.30 88 1013.2
20260503004006 55 293 0.0 2.6 0.00 1.32 1.30 89 1012.9
20260503003506 55 259 0.0 2.6 0.00 1.32 1.30 89 1012.9
20260503003015 55 293 0.0 3.5 0.00 1.32 1.30 89 1012.9
20260503002504 55 288 0.0 3.5 0.00 1.32 1.30 89 1012.8
20260503002004 55 282 0.9 3.5 0.00 1.33 1.30 89 1012.5
20260503001504 56 146 0.0 1.7 0.00 1.33 1.30 89 1012.5
20260503001003 56 290 0.0 1.7 0.00 1.33 1.30 89 1012.5
20260503000508 56 63 0.0 2.6 0.00 1.34 1.30 89 1012.3
20260503000010 56 11 0.0 2.6 0.00 1.34 1.30 89 1012.5
20260502235505 56 75 0.0 1.7 0.00 1.37 1.30 89 1012.4
20260502235008 56 107 0.0 0.9 0.00 1.38 1.30 89 1012.5
20260502234515 56 220 0.0 1.7 0.00 1.38 1.30 89 1012.4
20260502234006 56 162 0.0 2.6 0.00 1.39 1.30 89 1012.1
20260502233507 56 75 0.9 5.2 0.00 1.40 1.30 89 1012.0
20260502233018 56 298 0.9 5.2 0.00 1.40 1.30 89 1012.1
20260502232507 56 273 0.9 2.6 0.00 1.40 1.30 89 1012.0
20260502232007 56 267 0.0 1.7 0.00 1.40 1.30 89 1011.9
20260502231518 56 285 0.0 2.6 0.00 1.41 1.30 90 1011.7
20260502231009 56 294 0.9 2.6 0.00 1.41 1.30 90 1011.6